Time,TemperatureF,DewpointF,PressureIn,WindDirection,WindDirectionDegrees,WindSpeedMPH,WindSpeedGustMPH,Humidity,HourlyPrecipIn,Conditions,Clouds,dailyrainin,SoftwareType,DateUTC
2013-04-02 00:03:00,41.0,-99.9,29.77,NNW,327,12.0,22.0,-999,-99.99,,,-99.99,,2013-04-02 04:03:00,
2013-04-02 00:13:00,41.0,-99.9,29.78,NNW,331,19.0,24.0,-999,-99.99,,,-99.99,,2013-04-02 04:13:00,
2013-04-02 00:23:00,40.0,-99.9,29.78,NNW,331,16.0,26.0,-999,-99.99,,,-99.99,,2013-04-02 04:23:00,
2013-04-02 00:33:00,40.0,-99.9,29.79,NNW,335,15.0,23.0,-999,-99.99,,,-99.99,,2013-04-02 04:33:00,
2013-04-02 00:43:00,40.0,-99.9,29.79,NNW,327,11.0,21.0,-999,-99.99,,,-99.99,,2013-04-02 04:43:00,
2013-04-02 00:53:00,40.0,-99.9,29.79,NW,323,10.0,17.0,-999,-99.99,,,-99.99,,2013-04-02 04:53:00,
2013-04-02 01:02:00,39.0,-99.9,29.80,NW,306,13.0,20.0,-999,-99.99,,,-99.99,,2013-04-02 05:02:00,
2013-04-02 01:12:00,39.0,-99.9,29.80,NW,307,12.0,20.0,-999,-99.99,,,-99.99,,2013-04-02 05:12:00,
2013-04-02 01:23:00,39.0,-99.9,29.81,NW,317,16.0,21.0,-999,-99.99,,,-99.99,,2013-04-02 05:23:00,
2013-04-02 01:33:00,38.0,-99.9,29.82,NW,320,16.0,23.0,-999,-99.99,,,-99.99,,2013-04-02 05:33:00,
2013-04-02 01:43:00,38.0,-99.9,29.82,NW,324,15.0,27.0,-999,-99.99,,,-99.99,,2013-04-02 05:43:00,
2013-04-02 01:52:00,38.0,-99.9,29.83,NNW,332,21.0,29.0,-999,-99.99,,,-99.99,,2013-04-02 05:52:00,
2013-04-02 02:03:00,38.0,-99.9,29.83,NNW,327,14.0,24.0,-999,-99.99,,,-99.99,,2013-04-02 06:03:00,
2013-04-02 02:12:00,38.0,-99.9,29.83,NNW,330,15.0,26.0,-999,-99.99,,,-99.99,,2013-04-02 06:12:00,
2013-04-02 02:22:00,37.0,-99.9,29.83,NW,326,12.0,21.0,-999,-99.99,,,-99.99,,2013-04-02 06:22:00,
2013-04-02 02:32:00,37.0,-99.9,29.83,NW,321,13.0,25.0,-999,-99.99,,,-99.99,,2013-04-02 06:32:00,
2013-04-02 02:42:00,37.0,-99.9,29.83,NNW,335,14.0,19.0,-999,-99.99,,,-99.99,,2013-04-02 06:42:00,
2013-04-02 02:52:00,37.0,-99.9,29.83,NW,323,14.0,18.0,-999,-99.99,,,-99.99,,2013-04-02 06:52:00,
2013-04-02 03:02:00,37.0,-99.9,29.83,NW,321,12.0,22.0,-999,-99.99,,,-99.99,,2013-04-02 07:02:00,
2013-04-02 03:13:00,37.0,-99.9,29.83,NW,318,14.0,21.0,-999,-99.99,,,-99.99,,2013-04-02 07:13:00,
2013-04-02 03:22:00,37.0,-99.9,29.84,NW,314,13.0,22.0,-999,-99.99,,,-99.99,,2013-04-02 07:22:00,
2013-04-02 03:32:00,36.0,-99.9,29.85,NNW,328,12.0,21.0,-999,-99.99,,,-99.99,,2013-04-02 07:32:00,
2013-04-02 03:43:00,36.0,-99.9,29.85,NW,311,12.0,21.0,-999,-99.99,,,-99.99,,2013-04-02 07:43:00,
2013-04-02 03:53:00,36.0,-99.9,29.85,NW,325,16.0,24.0,-999,-99.99,,,-99.99,,2013-04-02 07:53:00,
2013-04-02 04:02:00,36.0,-99.9,29.85,NW,323,13.0,23.0,-999,-99.99,,,-99.99,,2013-04-02 08:02:00,
2013-04-02 04:14:00,36.0,-99.9,29.85,NW,321,14.0,25.0,-999,-99.99,,,-99.99,,2013-04-02 08:14:00,
2013-04-02 04:23:00,36.0,-99.9,29.86,WNW,300,11.0,19.0,-999,-99.99,,,-99.99,,2013-04-02 08:23:00,
2013-04-02 04:32:00,35.0,-99.9,29.86,NW,314,14.0,23.0,-999,-99.99,,,-99.99,,2013-04-02 08:32:00,
2013-04-02 04:43:00,35.0,-99.9,29.86,NW,319,13.0,23.0,-999,-99.99,,,-99.99,,2013-04-02 08:43:00,
2013-04-02 04:52:00,35.0,-99.9,29.86,NW,309,10.0,19.0,-999,-99.99,,,-99.99,,2013-04-02 08:52:00,
2013-04-02 05:02:00,35.0,-99.9,29.86,WNW,303,8.0,16.0,-999,-99.99,,,-99.99,,2013-04-02 09:02:00,
2013-04-02 05:13:00,35.0,-99.9,29.87,NW,304,14.0,23.0,-999,-99.99,,,-99.99,,2013-04-02 09:13:00,
2013-04-02 05:22:00,35.0,-99.9,29.87,WNW,300,10.0,21.0,-999,-99.99,,,-99.99,,2013-04-02 09:22:00,
2013-04-02 05:33:00,35.0,-99.9,29.87,NW,311,10.0,21.0,-999,-99.99,,,-99.99,,2013-04-02 09:33:00,
2013-04-02 05:43:00,35.0,-99.9,29.87,WNW,302,11.0,17.0,-999,-99.99,,,-99.99,,2013-04-02 09:43:00,
2013-04-02 05:53:00,35.0,-99.9,29.88,NW,318,15.0,24.0,-999,-99.99,,,-99.99,,2013-04-02 09:53:00,
2013-04-02 06:03:00,35.0,-99.9,29.88,NW,312,13.0,19.0,-999,-99.99,,,-99.99,,2013-04-02 10:03:00,
2013-04-02 06:13:00,35.0,-99.9,29.88,WNW,302,12.0,19.0,-999,-99.99,,,-99.99,,2013-04-02 10:13:00,
2013-04-02 06:24:00,34.0,-99.9,29.88,NW,308,12.0,19.0,-999,-99.99,,,-99.99,,2013-04-02 10:24:00,
2013-04-02 06:33:00,34.0,-99.9,29.89,NW,319,7.0,17.0,-999,-99.99,,,-99.99,,2013-04-02 10:33:00,
2013-04-02 06:43:00,34.0,-99.9,29.89,West,268,5.0,13.0,-999,-99.99,,,-99.99,,2013-04-02 10:43:00,
2013-04-02 06:53:00,33.0,-99.9,29.90,West,272,6.0,12.0,-999,-99.99,,,-99.99,,2013-04-02 10:53:00,
2013-04-02 07:03:00,34.0,-99.9,29.90,West,268,7.0,10.0,-999,-99.99,,,-99.99,,2013-04-02 11:03:00,
2013-04-02 07:12:00,34.0,-99.9,29.90,West,269,4.0,13.0,-999,-99.99,,,-99.99,,2013-04-02 11:12:00,
2013-04-02 07:23:00,34.0,-99.9,29.91,WNW,284,8.0,15.0,-999,-99.99,,,-99.99,,2013-04-02 11:23:00,
2013-04-02 07:33:00,35.0,-99.9,29.91,NW,305,10.0,17.0,-999,-99.99,,,-99.99,,2013-04-02 11:33:00,
2013-04-02 07:43:00,35.0,-99.9,29.92,NW,304,7.0,16.0,-999,-99.99,,,-99.99,,2013-04-02 11:43:00,
2013-04-02 07:53:00,35.0,-99.9,29.92,WNW,288,11.0,15.0,-999,-99.99,,,-99.99,,2013-04-02 11:53:00,
2013-04-02 08:02:00,35.0,-99.9,29.93,West,274,8.0,15.0,-999,-99.99,,,-99.99,,2013-04-02 12:02:00,
2013-04-02 08:12:00,35.0,-99.9,29.93,West,280,7.0,14.0,-999,-99.99,,,-99.99,,2013-04-02 12:12:00,
2013-04-02 08:23:00,35.0,-99.9,29.93,WNW,284,11.0,17.0,-999,-99.99,,,-99.99,,2013-04-02 12:23:00,
2013-04-02 08:32:00,36.0,-99.9,29.93,WNW,283,7.0,16.0,-999,-99.99,,,-99.99,,2013-04-02 12:32:00,
2013-04-02 08:43:00,36.0,-99.9,29.93,WNW,285,9.0,13.0,-999,-99.99,,,-99.99,,2013-04-02 12:43:00,
2013-04-02 08:53:00,36.0,-99.9,29.93,WNW,291,9.0,17.0,-999,-99.99,,,-99.99,,2013-04-02 12:53:00,
2013-04-02 09:02:00,36.0,-99.9,29.93,WNW,295,11.0,17.0,-999,-99.99,,,-99.99,,2013-04-02 13:02:00,
2013-04-02 09:12:00,36.0,-99.9,29.93,West,281,8.0,16.0,-999,-99.99,,,-99.99,,2013-04-02 13:12:00,
2013-04-02 09:23:00,36.0,-99.9,29.93,WNW,290,11.0,24.0,-999,-99.99,,,-99.99,,2013-04-02 13:23:00,
2013-04-02 09:33:00,37.0,-99.9,29.93,West,272,7.0,21.0,-999,-99.99,,,-99.99,,2013-04-02 13:33:00,
2013-04-02 09:42:00,37.0,-99.9,29.93,West,269,7.0,16.0,-999,-99.99,,,-99.99,,2013-04-02 13:42:00,
2013-04-02 09:53:00,37.0,-99.9,29.92,WSW,254,9.0,17.0,-999,-99.99,,,-99.99,,2013-04-02 13:53:00,
2013-04-02 10:02:00,38.0,-99.9,29.92,WSW,250,13.0,21.0,-999,-99.99,,,-99.99,,2013-04-02 14:02:00,
2013-04-02 10:13:00,38.0,-99.9,29.92,WSW,253,11.0,23.0,-999,-99.99,,,-99.99,,2013-04-02 14:13:00,
2013-04-02 10:23:00,38.0,-99.9,29.92,West,275,14.0,22.0,-999,-99.99,,,-99.99,,2013-04-02 14:23:00,
2013-04-02 10:33:00,38.0,-99.9,29.92,West,269,11.0,23.0,-999,-99.99,,,-99.99,,2013-04-02 14:33:00,
2013-04-02 10:43:00,37.0,-99.9,29.93,West,280,15.0,24.0,-999,-99.99,,,-99.99,,2013-04-02 14:43:00,
2013-04-02 10:52:00,38.0,-99.9,29.92,WSW,257,13.0,24.0,-999,-99.99,,,-99.99,,2013-04-02 14:52:00,
2013-04-02 11:03:00,38.0,-99.9,29.92,West,268,14.0,22.0,-999,-99.99,,,-99.99,,2013-04-02 15:03:00,
2013-04-02 11:12:00,38.0,-99.9,29.92,West,261,13.0,21.0,-999,-99.99,,,-99.99,,2013-04-02 15:12:00,
2013-04-02 11:23:00,38.0,-99.9,29.92,West,263,14.0,30.0,-999,-99.99,,,-99.99,,2013-04-02 15:23:00,
2013-04-02 11:43:00,38.0,-99.9,29.92,West,264,13.0,29.0,-999,-99.99,,,-99.99,,2013-04-02 15:43:00,
2013-04-02 11:58:00,38.0,-99.9,29.92,WSW,245,12.0,22.0,-999,-99.99,,,-99.99,,2013-04-02 15:58:00,
2013-04-02 12:04:00,38.0,-99.9,29.91,WSW,239,12.0,24.0,-999,-99.99,,,-99.99,,2013-04-02 16:04:00,
2013-04-02 12:25:00,37.0,-99.9,29.91,West,271,13.0,24.0,-999,-99.99,,,-99.99,,2013-04-02 16:25:00,
2013-04-02 12:39:00,38.0,-99.9,29.91,West,272,11.0,28.0,-999,-99.99,,,-99.99,,2013-04-02 16:39:00,
2013-04-02 12:54:00,39.0,-99.9,29.90,WSW,252,14.0,21.0,-999,-99.99,,,-99.99,,2013-04-02 16:54:00,
2013-04-02 13:14:00,38.0,-99.9,29.90,WSW,253,18.0,27.0,-999,-99.99,,,-99.99,,2013-04-02 17:14:00,
2013-04-02 13:25:00,38.0,-99.9,29.90,WSW,252,15.0,24.0,-999,-99.99,,,-99.99,,2013-04-02 17:25:00,
2013-04-02 13:35:00,38.0,-99.9,29.89,West,267,15.0,26.0,-999,-99.99,,,-99.99,,2013-04-02 17:35:00,
2013-04-02 13:44:00,38.0,-99.9,29.89,WNW,286,16.0,30.0,-999,-99.99,,,-99.99,,2013-04-02 17:44:00,
2013-04-02 13:57:00,38.0,-99.9,29.89,West,274,14.0,26.0,-999,-99.99,,,-99.99,,2013-04-02 17:57:00,
2013-04-02 14:05:00,38.0,-99.9,29.89,WSW,254,15.0,21.0,-999,-99.99,,,-99.99,,2013-04-02 18:05:00,
2013-04-02 14:13:00,39.0,-99.9,29.89,WSW,255,11.0,23.0,-999,-99.99,,,-99.99,,2013-04-02 18:13:00,
2013-04-02 14:23:00,38.0,-99.9,29.89,West,267,16.0,25.0,-999,-99.99,,,-99.99,,2013-04-02 18:23:00,
2013-04-02 14:35:00,39.0,-99.9,29.88,WSW,244,16.0,25.0,-999,-99.99,,,-99.99,,2013-04-02 18:35:00,
2013-04-02 14:43:00,38.0,-99.9,29.89,WSW,249,13.0,26.0,-999,-99.99,,,-99.99,,2013-04-02 18:43:00,
2013-04-02 14:57:00,38.0,-99.9,29.88,WSW,250,17.0,24.0,-999,-99.99,,,-99.99,,2013-04-02 18:57:00,
2013-04-02 15:03:00,39.0,-99.9,29.88,WSW,250,12.0,21.0,-999,-99.99,,,-99.99,,2013-04-02 19:03:00,
2013-04-02 15:13:00,39.0,-99.9,29.88,WSW,255,16.0,23.0,-999,-99.99,,,-99.99,,2013-04-02 19:13:00,
2013-04-02 15:23:00,39.0,-99.9,29.88,WSW,252,14.0,23.0,-999,-99.99,,,-99.99,,2013-04-02 19:23:00,
2013-04-02 15:35:00,39.0,-99.9,29.87,WSW,248,17.0,25.0,-999,-99.99,,,-99.99,,2013-04-02 19:35:00,
2013-04-02 15:47:00,40.0,-99.9,29.87,WSW,258,13.0,27.0,-999,-99.99,,,-99.99,,2013-04-02 19:47:00,
2013-04-02 16:04:00,39.0,-99.9,29.87,WSW,255,13.0,25.0,-999,-99.99,,,-99.99,,2013-04-02 20:04:00,
2013-04-02 16:14:00,39.0,-99.9,29.87,WSW,246,11.0,25.0,-999,-99.99,,,-99.99,,2013-04-02 20:14:00,
2013-04-02 16:34:00,39.0,-99.9,29.87,WSW,252,17.0,28.0,-999,-99.99,,,-99.99,,2013-04-02 20:34:00,
2013-04-02 16:44:00,39.0,-99.9,29.87,West,261,15.0,28.0,-999,-99.99,,,-99.99,,2013-04-02 20:44:00,
2013-04-02 16:55:00,39.0,-99.9,29.87,West,263,17.0,25.0,-999,-99.99,,,-99.99,,2013-04-02 20:55:00,
2013-04-02 17:05:00,40.0,-99.9,29.87,WSW,254,14.0,30.0,-999,-99.99,,,-99.99,,2013-04-02 21:05:00,
2013-04-02 17:13:00,40.0,-99.9,29.87,West,263,14.0,27.0,-999,-99.99,,,-99.99,,2013-04-02 21:13:00,
2013-04-02 17:23:00,40.0,-99.9,29.87,WSW,256,14.0,31.0,-999,-99.99,,,-99.99,,2013-04-02 21:23:00,
2013-04-02 17:35:00,40.0,-99.9,29.87,WSW,256,15.0,27.0,-999,-99.99,,,-99.99,,2013-04-02 21:35:00,
2013-04-02 17:44:00,40.0,-99.9,29.87,West,264,15.0,22.0,-999,-99.99,,,-99.99,,2013-04-02 21:44:00,
2013-04-02 17:57:00,40.0,-99.9,29.88,WSW,256,16.0,28.0,-999,-99.99,,,-99.99,,2013-04-02 21:57:00,
2013-04-02 18:05:00,40.0,-99.9,29.88,WSW,255,17.0,31.0,-999,-99.99,,,-99.99,,2013-04-02 22:05:00,
2013-04-02 18:14:00,40.0,-99.9,29.88,West,260,12.0,27.0,-999,-99.99,,,-99.99,,2013-04-02 22:14:00,
2013-04-02 18:25:00,40.0,-99.9,29.89,WSW,258,17.0,28.0,-999,-99.99,,,-99.99,,2013-04-02 22:25:00,
2013-04-02 18:34:00,40.0,-99.9,29.89,West,263,10.0,26.0,-999,-99.99,,,-99.99,,2013-04-02 22:34:00,
2013-04-02 18:44:00,40.0,-99.9,29.89,West,263,14.0,23.0,-999,-99.99,,,-99.99,,2013-04-02 22:44:00,
2013-04-02 18:54:00,39.0,-99.9,29.90,WSW,257,13.0,26.0,-999,-99.99,,,-99.99,,2013-04-02 22:54:00,
2013-04-02 19:03:00,39.0,-99.9,29.90,West,259,14.0,23.0,-999,-99.99,,,-99.99,,2013-04-02 23:03:00,
2013-04-02 19:13:00,39.0,-99.9,29.90,West,262,13.0,25.0,-999,-99.99,,,-99.99,,2013-04-02 23:13:00,
2013-04-02 19:24:00,39.0,-99.9,29.91,West,259,15.0,24.0,-999,-99.99,,,-99.99,,2013-04-02 23:24:00,
2013-04-02 19:37:00,39.0,-99.9,29.91,WSW,257,11.0,22.0,-999,-99.99,,,-99.99,,2013-04-02 23:37:00,
2013-04-02 19:43:00,39.0,-99.9,29.91,West,260,9.0,19.0,-999,-99.99,,,-99.99,,2013-04-02 23:43:00,
2013-04-02 19:55:00,39.0,-99.9,29.91,West,262,10.0,17.0,-999,-99.99,,,-99.99,,2013-04-02 23:55:00,
2013-04-02 20:05:00,39.0,-99.9,29.92,WNW,282,10.0,15.0,-999,-99.99,,,-99.99,,2013-04-03 00:05:00,
2013-04-02 20:13:00,39.0,-99.9,29.92,WNW,288,10.0,15.0,-999,-99.99,,,-99.99,,2013-04-03 00:13:00,
2013-04-02 20:26:00,39.0,-99.9,29.93,WNW,289,11.0,20.0,-999,-99.99,,,-99.99,,2013-04-03 00:26:00,
2013-04-02 20:34:00,39.0,-99.9,29.93,WNW,294,10.0,18.0,-999,-99.99,,,-99.99,,2013-04-03 00:34:00,
2013-04-02 20:48:00,39.0,-99.9,29.94,WNW,294,10.0,17.0,-999,-99.99,,,-99.99,,2013-04-03 00:48:00,
2013-04-02 20:57:00,39.0,-99.9,29.94,WNW,294,13.0,20.0,-999,-99.99,,,-99.99,,2013-04-03 00:57:00,
2013-04-02 21:04:00,39.0,-99.9,29.95,WNW,294,11.0,14.0,-999,-99.99,,,-99.99,,2013-04-03 01:04:00,
2013-04-02 21:13:00,39.0,-99.9,29.95,WNW,289,9.0,17.0,-999,-99.99,,,-99.99,,2013-04-03 01:13:00,
2013-04-02 21:23:00,39.0,-99.9,29.96,West,273,9.0,19.0,-999,-99.99,,,-99.99,,2013-04-03 01:23:00,
2013-04-02 21:34:00,39.0,-99.9,29.96,WNW,298,9.0,13.0,-999,-99.99,,,-99.99,,2013-04-03 01:34:00,
2013-04-02 21:43:00,39.0,-99.9,29.97,WNW,288,9.0,18.0,-999,-99.99,,,-99.99,,2013-04-03 01:43:00,
2013-04-02 21:54:00,38.0,-99.9,29.97,WNW,297,7.0,15.0,-999,-99.99,,,-99.99,,2013-04-03 01:54:00,
2013-04-02 22:04:00,38.0,-99.9,29.97,WNW,291,10.0,16.0,-999,-99.99,,,-99.99,,2013-04-03 02:04:00,
2013-04-02 22:14:00,38.0,-99.9,29.98,WNW,294,6.0,18.0,-999,-99.99,,,-99.99,,2013-04-03 02:14:00,
2013-04-02 22:25:00,38.0,-99.9,29.98,WNW,284,9.0,18.0,-999,-99.99,,,-99.99,,2013-04-03 02:25:00,
2013-04-02 22:34:00,38.0,-99.9,29.98,WNW,282,6.0,16.0,-999,-99.99,,,-99.99,,2013-04-03 02:34:00,
2013-04-02 22:45:00,38.0,-99.9,29.98,WNW,289,9.0,18.0,-999,-99.99,,,-99.99,,2013-04-03 02:45:00,
2013-04-02 22:53:00,38.0,-99.9,29.98,WNW,297,7.0,14.0,-999,-99.99,,,-99.99,,2013-04-03 02:53:00,
2013-04-02 23:07:00,38.0,-99.9,29.98,WNW,295,9.0,16.0,-999,-99.99,,,-99.99,,2013-04-03 03:07:00,
2013-04-02 23:14:00,38.0,-99.9,29.98,WNW,298,7.0,14.0,-999,-99.99,,,-99.99,,2013-04-03 03:14:00,
2013-04-02 23:23:00,38.0,-99.9,29.98,WNW,291,10.0,17.0,-999,-99.99,,,-99.99,,2013-04-03 03:23:00,
2013-04-02 23:38:00,37.0,-99.9,29.98,WNW,286,9.0,16.0,-999,-99.99,,,-99.99,,2013-04-03 03:38:00,
2013-04-02 23:44:00,37.0,-99.9,29.98,WNW,294,6.0,12.0,-999,-99.99,,,-99.99,,2013-04-03 03:44:00,
2013-04-02 23:54:00,37.0,-99.9,29.98,WNW,293,9.0,13.0,-999,-99.99,,,-99.99,,2013-04-03 03:54:00,